Powrót do katalogu

LEMUR-2 HCS-BAZUS

AktywnyNaukaSSO
NORAD 67388·PAYLOAD·🇺🇸 United States

Wystrzelony Jan 11, 2026 z Vandenberg Space Force Base

Loading…

Następne Przeloty (najbliższe 24 godziny)

TLE

ŚwieżeSource: Space-Track

Epoka: Sep 14, 2026, 10:45 UTC

1 67388U 26004AB  26257.44835305  .00002940  00000-0  30561-3 0  9991
2 67388  97.8080 255.3803 0003636 126.8286 233.3266 14.90660062 36607

Śledź LEMUR-2 HCS-BAZUS w czasie rzeczywistym z AllMySat

Download on the App Store